Regional Weather Roundup
Issued by NWS Sterling, VA

Home | Current Version | Previous Version | Text Only | Print | Product List | Glossary On
Versions: 1 2 3 4 5 6 7 8 9 10 11 12 13 14 15 16 17 18 19 20 21 22 23 24 25 26 27 28 29 30 31 32 33 34 35 36 37 38 39 40 41 42 43 44 45 46 47 48 49 50
408
ASUS41 KLWX 241411
RWRLWX

REGIONAL WEATHER ROUNDUP
NATIONAL WEATHER SERVICE BALTIMORE MD/WASHINGTON DC
1000 AM EDT SUN SEP 24 2017

Note: "FAIR" indicates few or no clouds below 12,000 feet
with no significant weather and/or obstructions to visibility.
 TC=TEMPERATURE CELSIUS

 * =Non NWS site. Station does not report precipitation (e.g. rain,
    snow, etc.), thunder, or fog.

DCZ001-MDZ009-015-VAZ040>042-051-053>054-241500-
WASHINGTON METRO

CITY           SKY/WX    TMP DP  RH WIND       PRES   REMARKS
WASHINGTON NAT MOSUNNY   78  64  61 NW7       30.11S
DULLES         MOSUNNY   77  63  61 VRB6      30.13S
ANDREWS AFB    SUNNY     78  62  58 N7        30.10S
FT BELVOIR     SUNNY     79  63  56 N6        30.11S
QUANTICO       MOSUNNY   80  65  59 N6        30.11S
COLLEGE PARK*  SUNNY     77  64  65 CALM      30.10S
LEESBURG*      SUNNY     79  64  61 N8        30.14S
MANASSAS*      SUNNY     77  63  61 N8        30.13S
GAITHERSBURG*  SUNNY     78  66  66 CALM      30.14S

$$

MDZ006>007-011-014-241500-
BALTIMORE METRO

CITY           SKY/WX    TMP DP  RH WIND       PRES   REMARKS
BWI AIRPORT    MOSUNNY   81  65  58 N7        30.10R
MD SCIENCE CTR   N/A     82  64  54 MISG      30.10S
MARTIN STATE   SUNNY     81  70  69 CALM      30.11S
ANNAPOLIS      SUNNY     80  68  66 N5        30.09S
FORT MEADE*    SUNNY     77  64  65 N3        30.13S

$$

MDZ012-015-019>023-241500-
MARYLAND EASTERN SHORE

CITY           SKY/WX    TMP DP  RH WIND       PRES   REMARKS
OCEAN CITY     SUNNY     77  67  71 NE8       30.07S
SALISBURY      SUNNY     78  66  66 NE7       30.07S
CAMBRIDGE*     SUNNY     77  64  65 NE5       30.08S
EASTON*        SUNNY     79  63  57 NE6       30.12S

$$

MDZ017>025-241500-
SOUTHERN MARYLAND

CITY           SKY/WX    TMP DP  RH WIND       PRES   REMARKS
PATUXENT RIVER MOSUNNY   77  67  71 NW5       30.09R
ST INIGOES     SUNNY     78  69  73 VRB5      30.08R
LEONARDTOWN*   SUNNY     73  64  73 CALM      30.10S

$$

MDZ003>005-241500-
NORTH CENTRAL MARYLAND

CITY           SKY/WX    TMP DP  RH WIND       PRES   REMARKS
FREDERICK*     SUNNY     75  61  60 CALM      30.16S
HAGERSTOWN APT SUNNY     72  61  68 SW3       30.17R
WESTMINSTER*   SUNNY     77  64  65 N5        30.14S

$$

MDZ501>502-241500-
WESTERN MARYLAND

CITY           SKY/WX    TMP DP  RH WIND       PRES   REMARKS
OAKLAND*       SUNNY     70  55  60 E6        30.24S
CUMBERLAND*    SUNNY     68  59  73 CALM      30.23F

$$

VAZ025>031-241500-
SHENANDOAH VALLEY

CITY           SKY/WX    TMP DP  RH WIND       PRES   REMARKS
WINCHESTER*    SUNNY     70  55  60 CALM      30.16F
FRONT ROYAL*   SUNNY     70  59  68 CALM      30.16S
LURAY*         SUNNY     68  59  73 CALM      30.18S
NEW MARKET*    SUNNY     69  53  57 CALM      30.18R
STAUNTON*      SUNNY     64  56  74 CALM      30.21R
WAYNESBORO*    SUNNY     67  61  80 CALM      30.20R

$$

WVZ021-048>050-054>055-241500-
EASTERN WEST VIRGINIA PANHANDLE

CITY           SKY/WX    TMP DP  RH WIND       PRES   REMARKS
MARTINSBURG    SUNNY     70  58  65 CALM      30.16S
PETERSBURG*    SUNNY     66  57  71 CALM      30.20F

$$

VAZ036>039-050-241500-
CENTRAL FOOTHILLS

CITY           SKY/WX    TMP DP  RH WIND       PRES   REMARKS
CHARLOTTESVILL SUNNY     75  62  64 CALM      30.14R
CULPEPER*      SUNNY     77  62  58 N6        30.14R
ORANGE*        SUNNY     73  59  60 CALM      30.13S
GORDONSVILLE*  SUNNY     78  60  53 NE7       30.12S
WARRENTON*     SUNNY     79  60  52 NE6       30.12S

$$

VAZ055>057-241500-
NORTH AND CENTRAL PIEDMONT

CITY           SKY/WX    TMP DP  RH WIND       PRES   REMARKS
FREDERICKSBRG* SUNNY     76  63  64 N6        30.10S
STAFFORD*      SUNNY     77  63  62 N5        30.15S

$$

NCZ024-NYZ072-PAZ021-071-VAZ022-071-241500-
OTHER REGIONAL OBSERVATIONS

CITY           SKY/WX    TMP DP  RH WIND       PRES   REMARKS
NEW YORK CITY  SUNNY     79  62  56 VRB5      30.11S
PHILADELPHIA   SUNNY     81  63  54 N8        30.09F
PITTSBURGH     SUNNY     73  63  70 VRB3      30.19S
ROANOKE        MOSUNNY   72  54  53 N9        30.19S
RICHMOND       MOSUNNY   78  61  55 N7        30.09S
RALEIGH        PTSUNNY   74  66  76 NE7       30.11R

$$

ANZ530>537-241500-
MARINE OBSERVATIONS

STATION/POSITION TIME  TEMP    WIND        PRES
                       AIR SEA DIR/SP/G
                 (UTC) (F)     (DEG/KT/KT) (MB)
THOMAS PT LIGHT  1400   75 76   10/  9/  9   N/A
BALT KEY BRIDGE  1348   79      20/  6/  7 1019.2R
COVE POINT       1348   73     350/ 11/ 12 1019.4R
LEWISETTA        1348   75 77  360/  7/  9 1018.6R
SOLOMONS ISLAND  1342   74 76  310/  4/  5 1018.4R
PINEY POINT      1348          340/  6/  7   N/A

$$





USA.gov is the U.S. government's official web portal to all federal, state and local government web resources and services.